Regional Weather Roundup
Issued by NWS

Home | Current Version | Previous Version | Text Only | Print | Product List | Glossary On
Versions: 1 2 3 4 5 6 7 8 9 10 11 12 13 14 15 16 17 18 19 20 21 22 23 24 25 26 27 28 29 30 31 32 33 34 35 36 37 38 39 40 41 42 43 44 45 46 47 48 49 50
000
ASUS43 KDMX 270607
RWRIA

WEATHER ROUNDUP FOR IOWA
NATIONAL WEATHER SERVICE DES MOINES IA
1200 AM CST FRI FEB 27 2015

NOTE: "FAIR" INDICATES FEW OR NO CLOUDS BELOW 12,000 FEET WITH NO
SIGNIFICANT WEATHER AND/OR OBSTRUCTIONS TO VISIBILITY.

* - THESE STATIONS ARE NOT NWS STATIONS...THUS NOT UNDER NWS
QUALITY CONTROL.  THEY ALSO DO NOT REPORT WEATHER SUCH
AS PRECIPITATION OR FOG.

IAZ001>003-012>014-020>022-031>034-043>046-270700-
   NORTHWEST IOWA

CITY           SKY/WX    TMP DP  RH WIND       PRES   REMARKS
CARROLL *      CLEAR     -6 -11  77 NW7       30.55R WCI -20
CHEROKEE *     CLEAR    -12 -15  85 CALM      30.55S
DENISON *      CLEAR    -13 -18  77 CALM      30.53F
LE MARS *      CLEAR     -6  -9  84 CALM      30.58R
ORANGE CITY *  CLEAR     -8 -11  84 CALM      30.52S
SHELDON *      CLEAR    -11 -17  77 W5        30.51F WCI -23
SIOUX CITY     CLEAR     -4  -9  79 NW7       30.59S WCI -18
6HR MIN TEMP:  -6; 6HR MAX TEMP:   8;

SPENCER        CLEAR    -13 -18  78 W8        30.52S WCI -30
6HR MIN TEMP: -14; 6HR MAX TEMP:   2;

STORM LAKE *   CLEAR     -6 -11  77 NW8       30.52S WCI -21
$$

IAZ055>058-069>071-079>083-090>094-270700-
   SOUTHWEST IOWA

CITY           SKY/WX    TMP DP  RH WIND       PRES   REMARKS
ATLANTIC *     CLEAR     -4 -11  71 N3        30.56S
AUDUBON *      CLEAR     -8 -13  77 CALM      30.54S
CLARINDA *     MOCLDY    -2  -6  84 CALM      30.61S
COUNCIL BLFS * CLEAR      1  -4  78 N6        30.55S WCI -10
CRESTON *      CLEAR     -4 -11  71 NW7       30.54S WCI -18
HARLAN  *      CLEAR     -6  -9  84 N6        30.59F WCI -18
LAMONI         CLEAR     -1  -7  75 NW7       30.54S WCI -14
6HR MIN TEMP:  -1; 6HR MAX TEMP:   7;

RED OAK *      PTCLDY    -2  -8  78 SW3       30.59R
SHENANDOAH *   PTCLDY     0  -6  78 CALM      30.61S
$$

IAZ047>049-059>061-072>074-084-270700-
   CENTRAL IOWA

CITY           SKY/WX    TMP DP  RH WIND       PRES   REMARKS
AMES           CLEAR     -3 -10  72 NW8       30.55S WCI -18
6HR MIN TEMP:  -4; 6HR MAX TEMP:   4;

ANKENY *       PTCLDY    -2  -9  71 NW8       30.57S WCI -17
CHARITON *     CLEAR     -4  -9  77 NW6       30.54S WCI -16
DES MOINES     CLEAR     -1  -8  72 NW5       30.56S WCI -11
6HR MIN TEMP:  -1; 6HR MAX TEMP:   7;

GRINNELL*      CLEAR     -7 -12  81 W6        30.53R WCI -20
KNOXVILLE *    CLEAR     -6 -13  71 NW8       30.54S WCI -21
MARSHALLTOWN   CLEAR    -13 -16  86 NW7       30.52R WCI -29
6HR MIN TEMP: -13; 6HR MAX TEMP:   1;

PELLA *        CLEAR     -4  -7  88 NW7       30.56S WCI -18
PERRY *          N/A     -6  -9  84 NW6       30.56S WCI -18
$$

IAZ004>006-015-016-023>025-035-036-270700-
   NORTH CENTRAL IOWA

CITY           SKY/WX    TMP DP  RH WIND       PRES   REMARKS
ALGONA *       CLEAR     -8 -13  77 NW13      30.51F WCI -28
CLARION *      CLEAR    -13 -20  70 CALM      30.52S
ESTHERVILLE    CLEAR    -13 -17  82 NW10      30.50S WCI -32
6HR MIN TEMP: -14; 6HR MAX TEMP:   0;

FORT DODGE *   CLEAR     -9 -15  77 CALM      30.53F
MASON CITY     PTCLDY   -11 -15  82 W8        30.50  WCI -28
6HR MIN TEMP: -12; 6HR MAX TEMP:  -1;

FOREST CITY *  CLEAR     -8 -15  71 W7        30.49S WCI -22
IOWA FALLS *     N/A    -15 -20  76 W5        30.51S WCI -27
$$

IAZ007>011-017>019-026>030-037>042-050>054-066-270700-
   NORTHEAST IOWA

CITY           SKY/WX    TMP DP  RH WIND       PRES   REMARKS
CEDAR RAPIDS   CLEAR    -11 -15  82 NW6       30.50S WCI -25
6HR MIN TEMP: -11; 6HR MAX TEMP:   2;

CHARLES CITY * CLEAR    -13 -18  77 W7        30.49S WCI -29
CLINTON *      CLEAR    -11 -17  77 CALM      30.50S
DECORAH *      CLEAR     -6 -13  71 NW5       30.45S WCI -17
DUBUQUE        CLEAR     -2 -11  65 CALM      30.45R
6HR MIN TEMP:  -4; 6HR MAX TEMP:   4;

MONTICELLO *   CLEAR     -9 -17  70 CALM      30.50S
OELWEIN *      CLEAR    -15 -20  76 NW9       30.49R WCI -33
WATERLOO       CLEAR     -9 -13  83 W6        30.52R WCI -22
6HR MIN TEMP:  -9; 6HR MAX TEMP:   1;

$$

IAZ064-065-067-068-078-270700-
   EAST CENTRAL IOWA

CITY           SKY/WX    TMP DP  RH WIND       PRES   REMARKS
DAVENPORT      CLEAR    -13 -19  75 W9        30.50R WCI -31
6HR MIN TEMP: -13; 6HR MAX TEMP:   5;

IOWA CITY      CLEAR     -4 -10  75 NW9       30.54S WCI -20
6HR MIN TEMP:  -4; 6HR MAX TEMP:   6;

MT. PLEASANT * CLEAR     -4 -10  73 W5        30.54R WCI -14
MUSCATINE *    CLEAR     -4 -11  71 W8        30.55S WCI -19
QUAD CITIES    CLEAR     -1 -10  65 W8        30.51S WCI -15
6HR MIN TEMP:  -1; 6HR MAX TEMP:   9;

$$

IAZ062-063-075>077-085>089-095>099-270700-
   SOUTHEAST IOWA

CITY           SKY/WX    TMP DP  RH WIND       PRES   REMARKS
BURLINGTON     CLEAR     -3  -9  75 NW7       30.53  WCI -16
6HR MIN TEMP:  -3; 6HR MAX TEMP:   7;

FAIRFIELD *    CLEAR     -8 -15  71 W6        30.54S WCI -21
FORT MADISON * CLEAR     -6  -9  84 NW7       30.54R WCI -20
KEOKUK *       CLEAR      0  -8  71 NW7       30.54S WCI -13
OSKALOOSA *      N/A     -8 -13  80 NW9       30.55R WCI -26
CENTERVILLE *  CLEAR     -4  -8  84 NW7       30.55R WCI -18
OTTUMWA        CLEAR     -3 -10  72 NW9       30.54S WCI -19
6HR MIN TEMP:  -4; 6HR MAX TEMP:   4;

WASHINGTON *   CLEAR     -4  -9  77 W8        30.54R WCI -19
$$

ABBREVIATIONS USED IN REMARKS
   TC - TEMPERATURES IN CELSIUS
  WCI - WIND CHILL INDEX
   HX - HEAT INDEX
  VSB - VISIBILITY
$$




USA.gov is the U.S. government's official web portal to all federal, state and local government web resources and services.